Montezuma, NM (87731)

12:08 PM MDT on August 27, 2014 (GMT -0600)
Las Vegas Municipal | Change Station
CLOSE
Current Station
Airport
Location: Las Vegas,
Elevation: 6877 ft
Nearby Weather Stations

Elev 6877 ft 35.65 °N, 105.14 °W | Updated 15 minutes ago

Clear
Clear
72 °F
Feels Like 72 °F
N
0
Wind Variable Wind from North

Today
High -- | Low -- °F
--% Chance of Precip.
Yesterday
High -- | Low -- °F
Precip. -- in
6:29 AM 7:35 PM
Waxing Crescent, 4% visible
Pressure 30.02 in
Visibility 10.0 miles
Clouds Clear
Dew Point 50 °F
Humidity 46%
Rainfall 0.12 in
Snow Depth 1 in
UV 11 out of 12
Pollen 4.40 out of 12
Air Quality Not available.
Flu Activity Not available.
METAR KLVS 271753Z AUTO 00000KT 10SM CLR 22/10 A3032 RMK AO2 SLP164 T02220100 10222 20122 58001

More Conditions Fewer Conditions

Pressure 30.02 in
Visibility 10.0 miles
Clouds Clear
Dew Point 50 °F
Humidity 46%
Rainfall 0.12 in
Snow Depth 1 in
UV 11 out of 12
Pollen 4.40 out of 12
Air Quality Not available.
Flu Activity Not available.
METAR KLVS 271753Z AUTO 00000KT 10SM CLR 22/10 A3032 RMK AO2 SLP164 T02220100 10222 20122 58001

More Conditions Fewer Conditions

10-Day Weather Forecast

Almanac

Astronomy

Aug. 27, 2014 Rise Set
Actual Time 6:29 AM MDT 7:35 PM MDT
Civil Twilight 6:03 AM MDT 8:01 PM MDT
Nautical Twilight 5:31 AM MDT 8:32 PM MDT
Astronomical Twilight 4:59 AM MDT 9:04 PM MDT
Moon 8:22 AM MDT 8:35 PM MDT
Length of Visible Light 13h 58m
Length of Day
13h 05m
Tomorrow will be 2m 8s shorter.
Waxing Crescent, 4% of the Moon is Illuminated
Today
Waxing Crescent
Sep 2
First Quarter
Sep 8
Full
Sep 15
Last Quarter
Sep 24
New

Today's Extremes

State Highs State Lows

Community

WunderPhotos

Upload Photos

1,747,747 photos uploaded!

Nearby

Snow Depth

Station Depth Elevation
Wesner Springs 1 in 11120 ft
Santa Fe 1 in 11445 ft
Gallegos Peak 1 in 9800 ft
Tolby 0 in 10180 ft
Quemazon 1 in 9500 ft

Earthquake Activity

City Distance Mag. Time & Date
No recent earthquake activity has been reported nearby.
Minimum magnitude displayed is 2.5.

Coastal Water Temperatures

Place Temperature
No Stations Reporting

Nearby Weather Stations